Location: ???????
(55.4362°N, 38.1183°E)
Time: 18:23:33
(UTC+00:00)

Cosmos 2322 - Pass Details

Date: 17 June 2021
Orbit: 839 x 856 km, 71.0° (Epoch: 30 July)

Event Time Altitude Azimuth Distance (km) Brightness Sun altitude
Rises 20:07:27 0° 209° (SSW) 3,384 6.4 -9.3°
Reaches altitude 10° 20:09:53 10° 209° (SSW) 2,453 5.7 -9.4°
Maximum altitude 20:15:31 84° 122° (ESE) 853 3.7 -9.6°
Drops below altitude 10° 20:21:12 10° 35° (NE) 2,474 6.7 -9.9°
Sets 20:23:40 0° 35° (NE) 3,414 7.5 -10.0°
